Regional Weather Roundup
Issued by NWS

Home | Current Version | Previous Version | Graphics & Text | Print | Product List | Glossary On
Versions: 1 2 3 4 5 6 7 8 9 10 11 12 13 14 15 16 17 18 19 20 21 22 23 24 25 26 27 28 29 30 31 32 33 34 35 36 37 38 39 40 41 42 43 44 45 46 47 48 49 50
000
ASUS45 KSLC 060210
RWRUT

UTAH REGIONAL WEATHER ROUNDUP
NATIONAL WEATHER SERVICE SALT LAKE CITY UT
700 PM MST THU MAR 05 2015

UTZ001>011-023>025-060300-

NORTHERN UTAH

CITY           SKY/WX    TMP DP  RH WIND       PRES   REMARKS
BRIGHAM CITY   CLEAR     40  24  52 NE3       30.42S
HILL AFB       CLEAR     41  13  32 E3        30.41R
LOGAN          CLEAR     40  22  48 S7        30.41R
OGDEN          CLEAR     41  15  35 CALM      30.41R
PROVO AIRPORT  PTCLDY    37  21  52 CALM      30.42S
SALT LAKE CITY PTCLDY    44  19  36 NE3       30.41R
VERNAL         CLEAR     32  18  56 W3        30.37R
WENDOVER       CLEAR     43  25  49 NW5       30.39S
HEBER CITY     CLEAR     32  21  64 CALM      30.40R
WEST JORDAN    CLEAR     41  21  45 CALM      30.41S

$$

UTZ012>022-026-027-060300-

SOUTHERN/CENTRAL UTAH

CITY           SKY/WX    TMP DP  RH WIND       PRES   REMARKS
BLANDING       CLEAR     35  26  68 CALM      30.44S
BRYCE CANYON   PTCLDY    14   5  67 CALM      30.39R
CEDAR CITY     PTCLDY    37  11  34 CALM      30.37R
DELTA          CLEAR     43  17  34 CALM      30.41R
HANKSVILLE     CLEAR     39  21  48 CALM      30.39R
MILFORD        CLEAR     37  23  56 NW9       30.38S WCI  30
MOAB/CYNLANDS  CLEAR     38  16  40 N6        30.36R WCI  33
PRICE          CLEAR     36  19  50 E5        30.36R WCI  32
ST GEORGE      CLEAR     54  27  35 CALM      30.35R

$$

REGIONAL REPORTS     COLORADO/ARIZONA

CITY           SKY/WX    TMP DP  RH WIND       PRES   REMARKS
CRAIG, CO      CLEAR     28  14  55 SE5       30.37R WCI  23
GRAND JUNCTION CLEAR     32  22  66 CALM      30.38R
RIFLE          CLEAR     37  15  40 S3        30.37R
MONTROSE       CLEAR     37  22  54 CALM      30.40R
CORTEZ         CLEAR     35  22  58 NE5       30.37R WCI  31
PAGE, AZ       CLEAR     46  23  40 CALM      30.35R
GRAND CANYON   CLEAR     28  19  69 CALM      30.37R
KINGMAN        CLEAR     48  30  49 NE5       30.29R
FLAGSTAFF      PTCLDY    34  18  52 E3        30.37R

$$

REGIONAL REPORTS    NEVADA/IDAHO/WYOMING

CITY           SKY/WX    TMP DP  RH WIND       PRES   REMARKS
LAS VEGAS, NV  CLEAR     61  23  23 CALM      30.26S
ELY            CLEAR     37  18  46 NW7       30.38R WCI  32
ELKO           CLEAR     42  13  30 S3        30.36R
POCATELLO, ID  CLEAR     42  19  39 S12       30.35R
BURLEY         PTCLDY    45  13  27 W6        30.33R
EVANSTON, WY   PTCLDY    26  14  60 SW9       30.38R WCI  17
ROCK SPRINGS   MOCLDY    31  18  58 W20       30.30R WCI  19

$$


USA.gov is the U.S. government's official web portal to all federal, state and local government web resources and services.